User: anonymous   Login
Location: Brno
(49.2000°N, 16.6330°E)
Time: 09:03:55
(UTC+02:00)
Language:

Cosmos 2227 - Orbit

View from above orbital plane
View from above orbital plane
View from above satellite
View from above satellite

Ground track
Ground track

The orbit data is extracted from the following two-line orbital elements,

1 22284U 92093A   14297.84489119 -.00000150  00000-0 -54355-4 0    83
2 22284 070.9802 101.1573 0019133 205.5037 254.8201 14.13192185126122
Epoch (UTC): 24 October 2014 20:16:38
Eccentricity: 0.0019133
inclination: 70.9802°
perigee height: 834 km
apogee height: 862 km
right ascension of ascending node: 101.1573°
argument of perigee: 205.5037°
revolutions per day: 14.13192185
mean anomaly at epoch: 254.8201°
orbit number at epoch: 12612

The dashed part of the orbit path shows where the satellite is in the earth's shadow,  

DLR